Location: Mesa Vista Observatory
(35.5777°N, 105.6987°W)
Time: 07:22:50
(UTC-06:00)

Tiros 1 - Visible Passes

Search period start: 26 September 2020 00:00
Search period end: 06 October 2020 00:00
Orbit: 630 x 664 km, 48.4° (Epoch: 26 September)

Date Brightness Start Highest point End Pass type
(mag) Time Alt. Az. Time Alt. Az. Time Alt. Az.
26 Sep 9.2 19:42:27 10° NW 19:45:43 18° N 19:49:00 10° NE visible
26 Sep 9.0 21:24:32 10° NW 21:27:04 26° NNW 21:27:04 26° NNW visible
27 Sep 8.8 20:08:34 10° NW 20:12:21 23° NNE 20:14:13 18° NE visible
27 Sep 9.6 21:50:24 10° NW 21:51:52 20° NW 21:51:52 20° NW visible
28 Sep 8.1 20:34:26 10° NW 20:38:49 34° NNE 20:39:03 34° NNE visible
28 Sep 10.3 22:16:31 10° WNW 22:16:43 11° WNW 22:16:43 11° WNW visible
29 Sep 8.8 19:18:27 10° NW 19:22:10 22° NNE 19:25:53 10° ENE visible
29 Sep 7.9 21:00:17 10° NW 21:03:57 49° NNW 21:03:57 49° NNW visible
30 Sep 8.2 19:44:19 10° NW 19:48:38 33° NNE 19:51:16 19° ENE visible
30 Sep 8.9 21:26:21 10° WNW 21:28:56 30° WNW 21:28:56 30° WNW visible
01 Oct 7.3 20:10:10 10° NW 20:14:55 60° NNE 20:16:19 41° E visible
01 Oct 9.9 21:53:00 10° WNW 21:54:00 15° W 21:54:00 15° W visible
02 Oct 7.4 20:36:13 10° WNW 20:40:56 63° SW 20:41:29 58° S visible
03 Oct 7.4 19:20:04 10° NW 19:24:46 56° NNE 19:29:06 12° ESE visible
03 Oct 8.8 21:02:45 10° WNW 21:06:44 26° SW 21:06:47 26° SW visible
04 Oct 7.4 19:46:03 10° WNW 19:50:48 69° SW 19:54:32 16° SE visible
04 Oct 10.0 21:31:42 10° WSW 21:32:14 10° SW 21:32:14 10° SW visible
05 Oct 8.9 20:12:31 10° WNW 20:16:38 29° SW 20:20:10 13° S visible
